FW6463 Weather Reports


time (UTC)temp
C
wind
direction
speed
KPH
gust
KPH
rain 1hr
cm
rain 24hr
cm
rain mn
cm
humidity
%
barometer
mb
20260509221520 21 251 3.2 4.8 0.00 0.48 0.48 71 1012.1
20260509220524 20 229 4.8 6.4 0.00 0.48 0.48 75 1012.1
20260509215529 17 150 3.2 4.8 0.00 0.48 0.48 83 1012.3
20260509214515 17 318 3.2 4.8 0.00 0.48 0.48 81 1012.3
20260509213521 16 43 3.2 4.8 0.00 0.48 0.48 86 1012.4
20260509212526 16 82 1.6 3.2 0.00 0.48 0.48 86 1012.5
20260509211530 16 74 1.6 3.2 0.00 0.48 0.48 88 1012.6
20260509210517 15 196 1.6 4.8 0.00 0.48 0.48 88 1012.8
20260509205522 16 242 1.6 3.2 0.00 0.48 0.48 86 1013.0
20260509204526 15 259 3.2 4.8 0.00 0.48 0.48 90 1013.0
20260509203551 15 65 1.6 3.2 0.00 0.48 0.48 89 1013.0
20260509202537 15 143 1.6 4.8 0.00 0.48 0.48 90 1013.1
20260509201522 15 87 1.6 3.2 0.00 0.48 0.48 91 1013.2
20260509200527 15 330 3.2 4.8 0.00 0.48 0.48 91 1013.2
20260509195612 15 317 4.8 8.0 0.00 0.48 0.48 91 1013.3
20260509194519 15 312 6.4 9.7 0.00 0.48 0.48 88 1013.0
20260509193603 15 289 3.2 6.4 0.00 0.48 0.48 87 1012.6
20260509192528 15 11 3.2 4.8 0.00 0.48 0.48 86 1012.6
20260509191527 15 327 3.2 4.8 0.00 0.48 0.48 89 1012.8
20260509190519 15 176 1.6 3.2 0.00 0.48 0.48 84 1013.0
20260509185525 16 229 4.8 6.4 0.00 0.48 0.48 84 1013.2
20260509184544 15 189 1.6 3.2 0.00 0.48 0.48 88 1013.5
20260509183516 15 303 3.2 8.0 0.00 0.48 0.48 89 1013.7
20260509182541 15 250 4.8 9.7 0.00 0.48 0.48 88 1013.9
20260509181519 14 303 4.8 8.0 0.00 0.48 0.48 91 1013.8
20260509180518 14 258 6.4 9.7 0.00 0.48 0.48 89 1013.7
20260509175516 14 256 6.4 11.3 0.00 0.48 0.48 89 1013.7
20260509174535 14 232 3.2 6.4 0.00 0.48 0.48 90 1013.5
20260509173526 14 184 3.2 6.4 0.00 0.48 0.48 92 1014.0
20260509172532 13 222 3.2 6.4 0.00 0.48 0.48 94 1014.2
20260509171517 13 208 3.2 6.4 0.00 0.48 0.48 98 1014.4
20260509170523 13 205 3.2 6.4 0.00 0.48 0.48 98 1014.5
20260509165547 13 188 1.6 4.8 0.03 0.48 0.48 99 1014.4
20260509164532 12 201 1.6 4.8 0.03 0.48 0.48 98 1014.6
20260509163519 12 160 4.8 6.4 0.08 0.48 0.48 98 1014.2
20260509162543 12 166 4.8 6.4 0.08 0.48 0.48 99 1014.2
20260509161528 12 222 3.2 4.8 0.13 0.48 0.48 99 1014.2
20260509160535 12 169 3.2 4.8 0.18 0.48 0.48 99 1014.1
20260509155520 12 0.0 0.0 0.20 0.46 0.46 99 1014.0
20260509154524 12 128 1.6 3.2 0.20 0.46 0.46 99 1014.0
20260509153530 12 0.0 0.0 0.20 0.41 0.41 99 1014.5
20260509152537 12 180 1.6 3.2 0.25 0.41 0.41 99 1014.5
20260509151521 11 126 1.6 4.8 0.25 0.36 0.36 99 1014.6
20260509150526 11 173 4.8 8.0 0.23 0.30 0.30 99 1014.9
20260509145551 11 170 3.2 6.4 0.20 0.25 0.25 99 1015.2
20260509144017 12 208 3.2 6.4 0.20 0.23 0.23 99 1014.9
20260509143016 12 194 1.6 4.8 0.15 0.18 0.18 97 1014.7
20260509142016 12 215 1.6 3.2 0.08 0.10 0.10 96 1014.7
20260509141032 13 208 3.2 4.8 0.08 0.10 0.10 93 1014.5
20260509140040 13 252 1.6 3.2 0.03 0.05 0.05 92 1014.5
20260509135024 13 201 3.2 4.8 0.03 0.05 0.05 90 1014.5
20260509134028 13 213 1.6 4.8 0.00 0.03 0.03 89 1014.5
20260509133016 13 196 3.2 6.4 0.00 0.03 0.03 88 1014.5
20260509132020 13 182 4.8 6.4 0.03 0.03 0.03 86 1014.2
20260509131025 13 267 3.2 4.8 0.03 0.03 0.03 86 1014.5
20260509130030 13 242 3.2 4.8 0.03 0.03 0.03 91 1014.5
20260509125017 12 218 3.2 4.8 0.03 0.03 0.03 93 1014.5
20260509124021 12 216 3.2 4.8 0.03 0.03 0.03 95 1014.5
20260509123025 12 230 4.8 6.4 0.03 0.03 0.03 98 1014.5
20260509122031 11 277 3.2 4.8 0.00 0.00 0.00 99 1014.6
20260509121038 11 223 1.6 3.2 0.00 0.00 0.00 99 1014.6
20260509120022 10 315 1.6 3.2 0.00 0.00 0.00 99 1014.5
20260509115027 10 126 1.6 3.2 0.00 0.00 0.00 99 1014.6
20260509114032 10 248 0.0 3.2 0.00 0.00 0.00 99 1014.7
20260509113100 10 0.0 0.0 0.00 0.00 0.00 99 1014.6
20260509112043 10 170 1.6 3.2 0.00 0.00 0.00 99 1014.5
20260509111028 9 0.0 0.0 0.00 0.00 0.00 99 1014.4
20260509110032 9 45 0.0 1.6 0.00 0.00 0.00 99 1014.2
20260509105019 9 45 0.0 1.6 0.00 0.00 0.00 99 1014.2
20260509104025 9 176 1.6 3.2 0.00 0.00 0.00 98 1014.1
20260509103029 9 165 1.6 3.2 0.00 0.00 0.00 97 1013.7
20260509102015 9 0.0 0.0 0.00 0.00 0.00 96 1013.7
20260509101040 9 0.0 3.2 0.00 0.00 0.00 97 1013.5
20260509100026 9 48 1.6 4.8 0.00 0.00 0.00 97 1013.2
20260509095030 9 203 1.6 3.2 0.00 0.00 0.00 95 1013.4
20260509094016 9 173 3.2 3.2 0.00 0.00 0.00 95 1013.6
20260509093021 9 0.0 0.0 0.00 0.00 0.00 94 1013.7
20260509092026 9 0.0 0.0 0.00 0.00 0.00 95 1013.7
20260509091032 9 0.0 0.0 0.00 0.00 0.00 94 1013.5
20260509090019 9 0.0 0.0 0.00 0.00 0.00 94 1013.7
20260509085022 9 0.0 0.0 0.00 0.00 0.00 92 1013.7
20260509084027 9 0.0 0.0 0.00 0.00 0.00 92 1013.7
20260509083032 9 300 0.0 1.6 0.00 0.00 0.00 93 1013.7
20260509082018 9 152 1.6 3.2 0.00 0.00 0.00 92 1013.7
20260509081023 9 158 0.0 3.2 0.00 0.00 0.00 91 1013.7
20260509080028 9 0.0 0.0 0.00 0.00 0.00 92 1013.7
20260509075027 9 165 1.6 3.2 0.00 0.00 0.00 93 1013.8
20260509074021 9 0.0 0.0 0.00 0.00 0.00 93 1013.9
20260509073024 9 0.0 0.0 0.00 0.00 0.00 92 1013.9
20260509072024 9 177 1.6 3.2 0.00 0.00 0.00 91 1014.0
20260509071016 8 210 1.6 3.2 0.00 0.00 0.00 93 1014.2
20260509070022 8 0.0 0.0 0.00 0.00 0.00 95 1014.2
20260509065039 8 158 0.0 3.2 0.00 0.00 0.00 95 1014.2
20260509064018 8 248 0.0 1.6 0.00 0.00 0.00 94 1014.3
20260509063016 9 180 0.0 3.2 0.00 0.00 0.00 94 1014.4
20260509062017 9 0.0 0.0 0.00 0.00 0.00 92 1014.5
20260509061026 10 293 0.0 3.2 0.00 0.00 0.00 93 1014.7
20260509060031 10 0.0 0.0 0.00 0.00 0.00 92 1014.4
20260509055018 10 0.0 0.0 0.00 0.00 0.00 92 1014.4
20260509054022 10 180 1.6 3.2 0.00 0.00 0.00 92 1014.4
20260509053028 10 270 0.0 1.6 0.00 0.00 0.00 91 1014.4
20260509052032 10 0.0 0.0 0.00 0.00 0.00 90 1014.4
20260509051039 10 173 0.0 1.6 0.00 0.00 0.00 92 1014.6
20260509050025 10 0.0 0.0 0.00 0.00 0.00 90 1014.7
20260509045048 10 0.0 0.0 0.00 0.00 0.00 90 1014.7
20260509044033 10 0.0 0.0 0.00 0.00 0.00 91 1014.8
20260509043020 10 0.0 0.0 0.00 0.00 0.00 91 1014.9
20260509042025 10 0.0 0.0 0.00 0.00 0.00 90 1014.9
20260509041030 10 0.0 0.0 0.00 0.00 0.00 89 1014.9
20260509040015 10 113 0.0 3.2 0.00 0.00 0.00 89 1014.9
20260509035101 10 0.0 0.0 0.00 0.00 0.00 88 1014.9
20260509034024 11 0.0 3.2 0.00 0.00 0.00 87 1014.9
20260509033030 11 315 0.0 3.2 0.00 0.00 0.00 85 1014.9
20260509032016 11 0.0 0.0 0.00 0.00 0.00 84 1015.3
20260509031021 11 158 1.6 4.8 0.00 0.00 0.00 83 1015.3
20260509030025 11 0.0 0.0 0.00 0.00 0.00 83 1015.4
20260509025030 11 0.0 0.0 0.00 0.00 0.00 83 1015.3
20260509024038 11 0.0 0.0 0.00 0.00 0.00 82 1015.2
20260509023021 11 343 1.6 1.6 0.00 0.00 0.00 82 1015.3
20260509022046 11 0.0 0.0 0.00 0.00 0.00 80 1015.4
20260509021031 11 158 0.0 3.2 0.00 0.00 0.00 79 1015.2
20260509020017 12 189 1.6 3.2 0.00 0.00 0.00 81 1014.9
20260509015044 11 179 3.2 4.8 0.00 0.00 0.00 82 1014.8
20260509014027 12 34 1.6 3.2 0.00 0.00 0.00 80 1014.7
20260509013032 12 171 1.6 4.8 0.00 0.00 0.00 80 1014.7
20260509012019 12 0.0 0.0 0.00 0.00 0.00 79 1014.7
20260509011023 12 184 3.2 3.2 0.00 0.00 0.00 79 1014.7
20260509010048 12 179 3.2 4.8 0.00 0.00 0.00 77 1014.9
20260509005015 12 169 3.2 3.2 0.00 0.00 0.00 75 1015.0
20260509004020 13 180 1.6 3.2 0.00 0.00 0.00 75 1015.0
20260509003044 13 0.0 0.0 0.00 0.00 0.00 71 1014.9
20260509002030 13 0.0 0.0 0.00 0.00 0.00 68 1014.7
20260509001016 14 180 0.0 3.2 0.00 0.00 0.00 66 1014.7
20260509000020 15 305 1.6 3.2 0.00 0.00 0.00 61 1014.7
20260508235025 16 243 3.2 4.8 0.00 0.00 0.00 60 1014.7
20260508234024 16 291 4.8 8.0 0.00 0.00 0.00 59 1014.6
20260508233017 17 292 4.8 6.4 0.00 0.00 0.00 58 1014.4
20260508232022 17 300 4.8 9.7 0.00 0.00 0.00 56 1014.2
20260508231021 16 270 4.8 9.7 0.00 0.00 0.00 58 1014.4
20260508230019 16 274 6.4 9.7 0.00 0.00 0.00 56 1014.7
20260508225018 16 264 12.9 22.5 0.00 0.00 0.00 56 1014.7
20260508224058 16 266 8.0 14.5 0.00 0.00 0.00 56 1014.7
20260508223035 16 260 9.7 14.5 0.00 0.00 0.00 56 1014.6
20260508222032 17 269 12.9 20.9 0.00 0.00 0.00 55 1014.5